User: anonymous   Login
Location: Unspecified
(0.0000°N, 0.0000°E)
Time: 11:22:51
(UTC+01:00)
Language:

ARIANE 5 R/B - Orbit

View from above orbital plane
View from above orbital plane
View from above satellite
View from above satellite

Ground track
Ground track

The orbit data is extracted from the following two-line orbital elements,

1 29646U 06054D   15063.34450492  .00001580  00000-0  54930-3 0  9996
2 29646 003.1456 351.4343 7128960 267.8216 350.1302 02.46377812 70894
Epoch (UTC): 04 March 2015 08:16:05
Eccentricity: 0.7128960
inclination: 3.1456°
perigee height: 270 km
apogee height: 33286 km
right ascension of ascending node: 351.4343°
argument of perigee: 267.8216°
revolutions per day: 2.46377812
mean anomaly at epoch: 350.1302°
orbit number at epoch: 7089

The dashed part of the orbit path shows where the satellite is in the earth's shadow,  

DLR